Starlink 33833

operational
NORAD ID: 63498 Int'l Des: 2025-071 Owner: SPXS Country: US Constellation: starlink
LEOCIRCULAR

About Starlink 33833

Description loading...

Live Position

Loading 3D Globe...

Upcoming Passes

Altitude History

Altitude vs Time

uPlot chart will show altitude changes over time

Two-Line Element Set

1 63498U 25071F 25257.24463894 .00028536 00000-0 97124-3 0 9996
2 63498 53.1582 239.6166 0002565 95.7231 264.4062 15.30220522 25759
Epoch: Sep 14, 2025 • Age: 26 hours

Current Status

Altitude 492.3 km
Velocity 7.62 km/s
Sub-Earth Point -46.65°S, 8.12°W
Launch Date Apr 7, 2025
Age 0.4 years
Type internet

Technical Details

Classification Payload
Mass 575.00 kg
Dry Mass 530.00 kg
Total Mass 575.00 kg
Length 0.30 m
Diameter 4.10 m
Span 29.00 m
Shape Box + pan
Manufacturer SPXS
Bus Type Starlink V2MO
Phase Status In Orbit
Owner/State SPXS/US

Large Constellations

Loading constellations...